TimeCDT,TemperatureF,Dew PointF,Humidity,Sea Level PressureIn,VisibilityMPH,Wind Direction,Wind SpeedMPH,Gust SpeedMPH,PrecipitationIn,Events,Conditions,WindDirDegrees,DateUTC
12:54 AM,55.0,34.0,45,30.22,10.0,ENE,8.1,-,N/A,,Mostly Cloudy,70,2012-10-11 05:54:00
1:54 AM,55.9,34.0,44,30.22,10.0,ENE,8.1,-,N/A,,Overcast,70,2012-10-11 06:54:00
2:54 AM,55.9,35.1,45,30.22,10.0,East,8.1,-,N/A,,Overcast,90,2012-10-11 07:54:00
3:54 AM,55.9,35.1,45,30.21,10.0,East,8.1,-,N/A,,Overcast,80,2012-10-11 08:54:00
4:54 AM,55.0,36.0,49,30.21,10.0,East,8.1,-,N/A,,Overcast,90,2012-10-11 09:54:00
5:54 AM,55.0,37.0,51,30.24,10.0,East,6.9,-,N/A,,Overcast,90,2012-10-11 10:54:00
6:54 AM,54.0,37.9,55,30.25,10.0,East,8.1,-,N/A,,Overcast,90,2012-10-11 11:54:00
7:54 AM,55.0,39.0,55,30.24,10.0,ESE,9.2,-,N/A,,Overcast,120,2012-10-11 12:54:00
8:54 AM,55.9,39.9,55,30.25,10.0,SE,9.2,-,N/A,,Overcast,130,2012-10-11 13:54:00
9:02 AM,55.4,39.2,54,30.26,10.0,ESE,4.6,-,N/A,,Overcast,110,2012-10-11 14:02:00
9:54 AM,57.0,41.0,55,30.27,10.0,SE,6.9,-,N/A,,Overcast,140,2012-10-11 14:54:00
10:54 AM,60.1,43.0,53,30.27,10.0,East,3.5,-,N/A,,Overcast,100,2012-10-11 15:54:00
11:54 AM,57.0,48.0,72,30.27,5.0,East,3.5,-,0.04,Rain,Rain,80,2012-10-11 16:54:00
12:03 PM,57.2,48.2,72,30.28,7.0,Calm,Calm,-,0.02,Rain,Light Rain,0,2012-10-11 17:03:00
12:21 PM,57.2,46.4,67,30.26,2.5,SE,3.5,-,0.02,Rain,Light Rain,130,2012-10-11 17:21:00
12:25 PM,57.2,48.2,72,30.26,1.8,SSE,4.6,-,0.02,Rain,Heavy Rain,150,2012-10-11 17:25:00
12:33 PM,55.4,48.2,77,30.26,3.0,Calm,Calm,-,0.14,Rain,Light Rain,0,2012-10-11 17:33:00
12:54 PM,57.0,48.9,74,30.25,7.0,East,3.5,-,0.15,Rain,Light Rain,100,2012-10-11 17:54:00
1:19 PM,57.2,51.8,82,30.24,10.0,Variable,4.6,-,0.00,,Overcast,0,2012-10-11 18:19:00
1:54 PM,59.0,52.0,78,30.22,10.0,Variable,6.9,-,0.00,,Overcast,0,2012-10-11 18:54:00
2:54 PM,60.1,53.1,78,30.21,10.0,East,6.9,-,N/A,,Overcast,100,2012-10-11 19:54:00
3:54 PM,61.0,54.0,78,30.21,10.0,Variable,5.8,-,0.00,,Overcast,0,2012-10-11 20:54:00
4:54 PM,62.6,55.4,77,30.20,10.0,East,5.8,-,N/A,,Overcast,80,2012-10-11 21:54:00
5:54 PM,61.0,55.0,81,30.19,10.0,East,6.9,-,N/A,,Mostly Cloudy,100,2012-10-11 22:54:00
6:28 PM,60.8,55.4,82,30.19,10.0,East,5.8,-,N/A,,Mostly Cloudy,80,2012-10-11 23:28:00
6:54 PM,60.1,55.0,83,30.19,10.0,East,4.6,-,N/A,,Scattered Clouds,80,2012-10-11 23:54:00
8:54 PM,60.1,55.9,86,30.20,10.0,East,6.9,-,N/A,,Scattered Clouds,80,2012-10-12 01:54:00
9:54 PM,60.1,55.9,86,30.20,10.0,ESE,4.6,-,N/A,,Scattered Clouds,110,2012-10-12 02:54:00
10:54 PM,61.0,57.0,87,30.19,10.0,ESE,5.8,-,N/A,,Mostly Cloudy,120,2012-10-12 03:54:00
11:54 PM,62.1,57.0,84,30.19,10.0,SE,4.6,-,N/A,,Scattered Clouds,140,2012-10-12 04:54:00